Weather History for KRQE - January, 2013

Change the Weather History Date:

Thursday, January 24, 2013

  Actual Average Record
Temperature  
Mean Temperature 32 °F -  
Max Temperature 45 °F 44 °F 59 °F (1981)
Min Temperature 19 °F 12 °F -7 °F (1964)
Degree Days  
Heating Degree Days 33    
Moisture  
Dew Point 26 °F    
Average Humidity 75    
Maximum Humidity 89    
Minimum Humidity 46    
Precipitation  
Precipitation 0.00 in - - ()
Sea Level Pressure  
Sea Level Pressure 30.30 in    
Wind  
Wind Speed 2 mph (SW)    
Max Wind Speed 12 mph    
Max Gust Speed 18 mph    
Visibility 10 miles    
Events Rain    
Averages and records for this station are not official NWS values.
T = Trace of Precipitation, MM = Missing Value Source: NWS Daily Summary

Daily Weather History Graph

Daily Weather History Graph

Search for Another Location

Airport or City:

Trip Planner

Search our weather history database for the weather conditions in past years. The results will help you decide how hot, cold, wet, or windy it might be!

Date:

Astronomy

Jan. 24, 2013 Rise Set
Actual Time 7:21 AM MST 5:35 PM MST
Civil Twilight 6:54 AM MST 6:03 PM MST
Nautical Twilight 6:23 AM MST 6:34 PM MST
Astronomical Twilight 5:52 AM MST 7:04 PM MST
Moon 3:41 PM MST (1/24) 5:20 AM MST (1/24)
Length of Visible Light 11h 09m
Length of Day
10h 14m
Waxing Gibbous, 95% of the Moon is Illuminated
Jan 24
Waxing Gibbous
Jan 26
Full
Feb 3
Last Quarter
Feb 10
New
Feb 17
First Quarter

Hourly Weather History & Observations

Time (MST) Temp. Windchill Dew Point Humidity Pressure Visibility Wind Dir Wind Speed Gust Speed Precip Events Conditions
12:53 AM 19.9 °F - 17.1 °F 89% 30.31 in 10.0 mi Calm Calm - N/A   Clear
1:53 AM 23.0 °F - 19.9 °F 88% 30.29 in 10.0 mi Calm Calm - N/A   Clear
2:53 AM 21.9 °F 17.2 °F 19.0 °F 89% 30.27 in 10.0 mi South 3.5 mph - N/A   Clear
3:53 AM 23.0 °F 17.0 °F 19.9 °F 88% 30.29 in 10.0 mi SSW 4.6 mph - N/A   Clear
4:53 AM 26.1 °F - 19.0 °F 75% 30.27 in 10.0 mi Calm Calm - N/A   Clear
5:53 AM 24.1 °F 19.7 °F 19.9 °F 84% 30.31 in 10.0 mi South 3.5 mph - N/A   Clear
6:53 AM 25.0 °F - 19.9 °F 81% 30.32 in 10.0 mi Calm Calm - N/A   Clear
7:53 AM 24.1 °F - 19.9 °F 84% 30.36 in 10.0 mi Calm Calm - N/A   Clear
8:53 AM 27.0 °F - 21.9 °F 81% 30.36 in 10.0 mi Calm Calm - N/A   Partly Cloudy
9:53 AM 34.0 °F - 21.9 °F 61% 30.35 in 10.0 mi Calm Calm - N/A   Clear
10:53 AM 41.0 °F - 21.9 °F 47% 30.33 in 10.0 mi Calm Calm - N/A   Overcast
11:53 AM 45.0 °F - 25.0 °F 46% 30.30 in 10.0 mi Calm Calm - N/A   Mostly Cloudy
12:53 PM 45.0 °F 39.3 °F 30.9 °F 58% 30.30 in 10.0 mi WSW 11.5 mph 18.4 mph N/A   Overcast
1:53 PM 44.1 °F 39.5 °F 32.0 °F 63% 30.27 in 10.0 mi SW 8.1 mph - N/A   Overcast
2:53 PM 44.1 °F 40.1 °F 34.0 °F 68% 30.25 in 10.0 mi SW 6.9 mph - N/A   Mostly Cloudy
3:53 PM 45.0 °F - 33.1 °F 63% 30.25 in 10.0 mi Calm Calm - N/A   Mostly Cloudy
4:53 PM 43.0 °F - 30.9 °F 62% 30.25 in 10.0 mi Calm Calm - N/A   Overcast
5:53 PM 41.0 °F 39.0 °F 33.1 °F 73% 30.29 in 10.0 mi NW 3.5 mph - 0.00 in Rain Light Rain
6:53 PM 39.0 °F - 33.1 °F 79% 30.31 in 10.0 mi Calm Calm - 0.00 in   Overcast
7:53 PM 39.0 °F - 33.1 °F 79% 30.30 in 10.0 mi Calm Calm - N/A   Overcast
8:45 PM 35.6 °F - 30.2 °F 81% 30.32 in 10.0 mi Calm Calm - N/A   Overcast
8:53 PM 35.1 °F - 32.0 °F 89% 30.29 in 10.0 mi Calm Calm - N/A   Overcast
9:53 PM 35.1 °F 32.2 °F 32.0 °F 89% 30.28 in 10.0 mi SSW 3.5 mph - N/A   Overcast